TimePDT,TemperatureF,Dew PointF,Humidity,Sea Level PressureIn,VisibilityMPH,Wind Direction,Wind SpeedMPH,Gust SpeedMPH,PrecipitationIn,Events,Conditions,WindDirDegrees,DateUTC
12:15 AM,41.0,28.4,61,30.14,10.0,WSW,4.6,-,N/A,,Clear,240,2013-03-16 07:15:00
12:35 AM,37.4,28.4,70,30.14,10.0,Calm,Calm,-,N/A,,Clear,0,2013-03-16 07:35:00
12:55 AM,39.2,28.4,65,30.13,10.0,WSW,4.6,-,N/A,,Clear,250,2013-03-16 07:55:00
1:15 AM,37.4,28.4,70,30.13,10.0,WSW,4.6,-,N/A,,Clear,250,2013-03-16 08:15:00
1:35 AM,37.4,28.4,70,30.12,10.0,WSW,4.6,-,N/A,,Clear,240,2013-03-16 08:35:00
1:55 AM,37.4,28.4,70,30.12,10.0,WSW,4.6,-,N/A,,Clear,250,2013-03-16 08:55:00
2:15 AM,35.6,26.6,70,30.11,10.0,WSW,5.8,-,N/A,,Clear,250,2013-03-16 09:15:00
2:35 AM,39.2,28.4,65,30.11,10.0,West,5.8,-,N/A,,Clear,260,2013-03-16 09:35:00
2:55 AM,41.0,26.6,57,30.11,10.0,West,5.8,-,N/A,,Clear,260,2013-03-16 09:55:00
3:15 AM,42.8,28.4,57,30.10,10.0,WSW,5.8,-,N/A,,Clear,250,2013-03-16 10:15:00
3:35 AM,42.8,23.0,46,30.09,10.0,West,5.8,-,N/A,,Clear,260,2013-03-16 10:35:00
3:55 AM,42.8,19.4,39,30.09,10.0,WSW,6.9,-,N/A,,Clear,240,2013-03-16 10:55:00
4:15 AM,46.4,14.0,27,30.09,10.0,SW,4.6,-,N/A,,Clear,230,2013-03-16 11:15:00
4:35 AM,46.4,14.0,27,30.08,10.0,SW,8.1,-,N/A,,Clear,220,2013-03-16 11:35:00
4:55 AM,46.4,14.0,27,30.08,10.0,SW,6.9,-,N/A,,Clear,220,2013-03-16 11:55:00
5:15 AM,42.8,17.6,36,30.09,10.0,NE,3.5,-,N/A,,Clear,50,2013-03-16 12:15:00
5:35 AM,39.2,19.4,45,30.09,10.0,Calm,Calm,-,N/A,,Clear,0,2013-03-16 12:35:00
5:55 AM,39.2,19.4,45,30.09,10.0,Calm,Calm,-,N/A,,Clear,0,2013-03-16 12:55:00
6:15 AM,35.6,21.2,56,30.09,10.0,Calm,Calm,-,N/A,,Clear,0,2013-03-16 13:15:00
6:35 AM,35.6,21.2,56,30.09,10.0,Calm,Calm,-,N/A,,Clear,0,2013-03-16 13:35:00
6:55 AM,35.6,21.2,56,30.10,10.0,Calm,Calm,-,N/A,,Clear,0,2013-03-16 13:55:00
7:15 AM,33.8,21.2,60,30.11,10.0,Calm,Calm,-,N/A,,Clear,0,2013-03-16 14:15:00
7:35 AM,33.8,21.2,60,30.11,10.0,Calm,Calm,-,N/A,,Clear,0,2013-03-16 14:35:00
7:55 AM,33.8,21.2,60,30.11,10.0,Calm,Calm,-,N/A,,Clear,0,2013-03-16 14:55:00
8:15 AM,37.4,23.0,56,30.11,10.0,Calm,Calm,-,N/A,,Clear,0,2013-03-16 15:15:00
8:35 AM,42.8,23.0,46,30.12,10.0,Calm,Calm,-,N/A,,Clear,0,2013-03-16 15:35:00
8:55 AM,48.2,21.2,34,30.12,10.0,West,4.6,-,N/A,,Clear,260,2013-03-16 15:55:00
9:15 AM,51.8,19.4,28,30.11,10.0,West,8.1,-,N/A,,Clear,270,2013-03-16 16:15:00
9:35 AM,51.8,17.6,26,30.11,10.0,WSW,3.5,-,N/A,,Clear,250,2013-03-16 16:35:00
9:55 AM,53.6,17.6,24,30.11,10.0,Calm,Calm,-,N/A,,Clear,0,2013-03-16 16:55:00
10:15 AM,57.2,15.8,20,30.11,10.0,Calm,Calm,-,N/A,,Clear,0,2013-03-16 17:15:00
10:35 AM,57.2,17.6,21,30.11,10.0,West,4.6,-,N/A,,Clear,260,2013-03-16 17:35:00
10:55 AM,59.0,19.4,22,30.11,10.0,West,8.1,-,N/A,,Clear,270,2013-03-16 17:55:00
11:15 AM,59.0,15.8,19,30.11,10.0,NE,6.9,-,N/A,,Clear,50,2013-03-16 18:15:00
11:55 AM,59.0,12.2,16,30.10,10.0,East,6.9,-,N/A,,Clear,90,2013-03-16 18:55:00
12:15 PM,60.8,12.2,15,30.11,10.0,North,8.1,-,N/A,,Clear,350,2013-03-16 19:15:00
12:35 PM,59.0,12.2,16,30.11,10.0,NW,8.1,17.3,N/A,,Clear,320,2013-03-16 19:35:00
12:55 PM,59.0,12.2,16,30.11,10.0,Calm,Calm,-,N/A,,Clear,0,2013-03-16 19:55:00
1:15 PM,59.0,10.4,15,30.11,10.0,North,5.8,-,N/A,,Clear,360,2013-03-16 20:15:00
1:35 PM,59.0,12.2,16,30.10,10.0,WNW,4.6,-,N/A,,Clear,300,2013-03-16 20:35:00
1:55 PM,60.8,10.4,14,30.09,10.0,ENE,5.8,-,N/A,,Clear,60,2013-03-16 20:55:00
2:15 PM,60.8,10.4,14,30.09,10.0,West,8.1,-,N/A,,Clear,270,2013-03-16 21:15:00
2:35 PM,60.8,10.4,14,30.08,10.0,West,12.7,17.3,N/A,,Clear,280,2013-03-16 21:35:00
2:55 PM,60.8,10.4,14,30.08,10.0,NNW,8.1,11.5,N/A,,Clear,330,2013-03-16 21:55:00
3:15 PM,60.8,10.4,14,30.07,10.0,NW,4.6,-,N/A,,Clear,320,2013-03-16 22:15:00
3:35 PM,60.8,10.4,14,30.07,10.0,NW,8.1,-,N/A,,Clear,310,2013-03-16 22:35:00
3:55 PM,60.8,10.4,14,30.07,10.0,NNW,5.8,-,N/A,,Clear,340,2013-03-16 22:55:00
4:15 PM,60.8,10.4,14,30.06,10.0,NW,8.1,-,N/A,,Clear,310,2013-03-16 23:15:00
4:35 PM,60.8,8.6,13,30.06,10.0,West,9.2,-,N/A,,Clear,280,2013-03-16 23:35:00
4:55 PM,60.8,14.0,16,30.07,10.0,West,12.7,19.6,N/A,,Clear,270,2013-03-16 23:55:00
5:15 PM,59.0,12.2,16,30.07,10.0,West,10.4,17.3,N/A,,Clear,260,2013-03-17 00:15:00
5:35 PM,59.0,17.6,20,30.07,10.0,WSW,10.4,18.4,N/A,,Clear,250,2013-03-17 00:35:00
5:55 PM,57.2,14.0,18,30.08,10.0,West,16.1,20.7,N/A,,Clear,270,2013-03-17 00:55:00
6:15 PM,55.4,15.8,21,30.08,10.0,WSW,10.4,19.6,N/A,,Clear,250,2013-03-17 01:15:00
6:35 PM,53.6,14.0,21,30.08,10.0,WSW,12.7,18.4,N/A,,Clear,250,2013-03-17 01:35:00
6:55 PM,51.8,17.6,26,30.08,10.0,West,10.4,18.4,N/A,,Clear,260,2013-03-17 01:55:00
7:15 PM,51.8,14.0,22,30.08,10.0,WSW,9.2,-,N/A,,Clear,240,2013-03-17 02:15:00
7:35 PM,50.0,14.0,24,30.08,10.0,SSW,3.5,17.3,N/A,,Clear,210,2013-03-17 02:35:00
7:55 PM,50.0,14.0,24,30.08,10.0,WSW,5.8,-,N/A,,Clear,240,2013-03-17 02:55:00
8:15 PM,48.2,14.0,25,30.09,10.0,WSW,5.8,-,N/A,,Clear,240,2013-03-17 03:15:00
8:35 PM,50.0,12.2,22,30.10,10.0,West,11.5,-,N/A,,Clear,280,2013-03-17 03:35:00
8:55 PM,46.4,12.2,25,30.10,10.0,WSW,6.9,-,N/A,,Clear,250,2013-03-17 03:55:00
9:15 PM,44.6,14.0,29,30.10,10.0,SSW,4.6,-,N/A,,Clear,200,2013-03-17 04:15:00
9:35 PM,44.6,12.2,27,30.10,10.0,West,5.8,-,N/A,,Clear,270,2013-03-17 04:35:00
9:55 PM,44.6,12.2,27,30.10,10.0,West,10.4,16.1,N/A,,Clear,260,2013-03-17 04:55:00
10:15 PM,44.6,14.0,29,30.09,10.0,West,11.5,-,N/A,,Clear,260,2013-03-17 05:15:00
10:35 PM,42.8,12.2,29,30.09,10.0,WNW,6.9,-,N/A,,Clear,300,2013-03-17 05:35:00
10:55 PM,42.8,12.2,29,30.08,10.0,West,6.9,-,N/A,,Clear,260,2013-03-17 05:55:00
11:15 PM,44.6,12.2,27,30.09,10.0,Calm,Calm,-,N/A,,Clear,0,2013-03-17 06:15:00
11:35 PM,44.6,10.4,25,30.10,10.0,NW,4.6,-,N/A,,Clear,320,2013-03-17 06:35:00
11:55 PM,41.0,12.2,31,30.09,10.0,SSW,6.9,-,N/A,,Clear,210,2013-03-17 06:55:00